Time,TemperatureF,DewpointF,PressureIn,WindDirection,WindDirectionDegrees,WindSpeedMPH,WindSpeedGustMPH,Humidity,HourlyPrecipIn,Conditions,Clouds,dailyrainin,SolarRadiationWatts/m^2,SoftwareType,DateUTC
2013-07-30 00:03:00,84.0,74.0,-100.00,ESE,102,4.0,11.0,72,0.00,,,0.00,0.000000,,2013-07-30 04:03:00,
2013-07-30 00:13:00,84.0,74.0,-100.00,ESE,102,4.0,11.0,72,0.00,,,0.00,0.000000,,2013-07-30 04:13:00,
2013-07-30 00:23:00,84.0,74.0,-100.00,ESE,102,4.0,11.0,72,0.00,,,0.00,0.000000,,2013-07-30 04:23:00,
2013-07-30 00:33:00,84.0,74.0,-100.00,ESE,102,4.0,11.0,72,0.00,,,0.00,0.000000,,2013-07-30 04:33:00,
2013-07-30 01:13:00,84.0,74.0,-100.00,East,91,5.0,10.0,73,0.00,,,0.00,0.000000,,2013-07-30 05:13:00,
2013-07-30 01:23:00,84.0,74.0,-100.00,East,91,5.0,10.0,73,0.00,,,0.00,0.000000,,2013-07-30 05:23:00,
2013-07-30 01:33:00,84.0,74.0,-100.00,East,91,5.0,10.0,73,0.00,,,0.00,0.000000,,2013-07-30 05:33:00,
2013-07-30 02:13:00,84.0,74.0,-100.00,ESE,111,4.0,11.0,73,0.00,,,0.00,0.000000,,2013-07-30 06:13:00,
2013-07-30 02:23:00,84.0,74.0,-100.00,ESE,111,4.0,11.0,73,0.00,,,0.00,0.000000,,2013-07-30 06:23:00,
2013-07-30 02:33:00,84.0,74.0,-100.00,ESE,111,4.0,11.0,73,0.00,,,0.00,0.000000,,2013-07-30 06:33:00,
2013-07-30 03:03:00,84.0,74.0,-100.00,ESE,121,5.0,11.0,73,0.00,,,0.00,0.000000,,2013-07-30 07:03:00,
2013-07-30 03:13:00,84.0,74.0,-100.00,ESE,121,5.0,11.0,73,0.00,,,0.00,0.000000,,2013-07-30 07:13:00,
2013-07-30 03:23:00,84.0,74.0,-100.00,ESE,121,5.0,11.0,73,0.00,,,0.00,0.000000,,2013-07-30 07:23:00,
2013-07-30 03:33:00,84.0,74.0,-100.00,ESE,121,5.0,11.0,73,0.00,,,0.00,0.000000,,2013-07-30 07:33:00,
2013-07-30 04:03:00,83.0,75.0,-100.00,SE,141,4.0,9.0,76,0.00,,,0.00,0.000000,,2013-07-30 08:03:00,
2013-07-30 04:13:00,83.0,75.0,-100.00,SE,141,4.0,9.0,76,0.00,,,0.00,0.000000,,2013-07-30 08:13:00,
2013-07-30 04:23:00,83.0,75.0,-100.00,SE,141,4.0,9.0,76,0.00,,,0.00,0.000000,,2013-07-30 08:23:00,
2013-07-30 04:33:00,83.0,75.0,-100.00,SE,141,4.0,9.0,76,0.00,,,0.00,0.000000,,2013-07-30 08:33:00,
2013-07-30 05:03:00,83.0,75.0,-100.00,SE,136,4.0,7.0,77,0.00,,,0.00,0.000000,,2013-07-30 09:03:00,
2013-07-30 05:13:00,83.0,75.0,-100.00,SE,136,4.0,7.0,77,0.00,,,0.00,0.000000,,2013-07-30 09:13:00,
2013-07-30 05:23:00,83.0,75.0,-100.00,SE,136,4.0,7.0,77,0.00,,,0.00,0.000000,,2013-07-30 09:23:00,
2013-07-30 05:33:00,83.0,75.0,-100.00,SE,136,4.0,7.0,77,0.00,,,0.00,0.000000,,2013-07-30 09:33:00,
2013-07-30 06:12:00,83.0,75.0,-100.00,SE,126,4.0,9.0,76,0.00,,,0.00,0.000000,,2013-07-30 10:12:00,
2013-07-30 06:23:00,83.0,75.0,-100.00,SE,126,4.0,9.0,76,0.00,,,0.00,0.000000,,2013-07-30 10:23:00,
2013-07-30 06:32:00,83.0,75.0,-100.00,SE,126,4.0,9.0,76,0.00,,,0.00,0.000000,,2013-07-30 10:32:00,
2013-07-30 07:11:00,82.0,73.0,-100.00,ESE,105,6.0,11.0,75,0.00,,,0.00,0.000000,,2013-07-30 11:11:00,
2013-07-30 07:22:00,82.0,73.0,-100.00,ESE,105,6.0,11.0,75,0.00,,,0.00,0.000000,,2013-07-30 11:22:00,
2013-07-30 07:33:00,82.0,73.0,-100.00,ESE,105,6.0,11.0,75,0.00,,,0.00,0.000000,,2013-07-30 11:33:00,
2013-07-30 08:12:00,82.0,72.0,-100.00,East,88,4.0,9.0,72,0.00,,,0.00,7.000000,,2013-07-30 12:12:00,
2013-07-30 08:22:00,82.0,72.0,-100.00,East,88,4.0,9.0,72,0.00,,,0.00,7.000000,,2013-07-30 12:22:00,
2013-07-30 08:33:00,82.0,72.0,-100.00,East,88,4.0,9.0,72,0.00,,,0.00,7.000000,,2013-07-30 12:33:00,
2013-07-30 09:02:00,84.0,73.0,-100.00,East,95,5.0,9.0,70,0.00,,,0.00,55.000000,,2013-07-30 13:02:00,
2013-07-30 09:12:00,84.0,73.0,-100.00,East,95,5.0,9.0,70,0.00,,,0.00,55.000000,,2013-07-30 13:12:00,
2013-07-30 09:22:00,84.0,73.0,-100.00,East,95,5.0,9.0,70,0.00,,,0.00,55.000000,,2013-07-30 13:22:00,
2013-07-30 09:33:00,84.0,73.0,-100.00,East,95,5.0,9.0,70,0.00,,,0.00,55.000000,,2013-07-30 13:33:00,
2013-07-30 10:03:00,85.0,77.0,-100.00,ENE,77,5.0,11.0,77,0.00,,,0.00,136.000000,,2013-07-30 14:03:00,
2013-07-30 10:12:00,85.0,77.0,-100.00,ENE,77,5.0,11.0,77,0.00,,,0.00,136.000000,,2013-07-30 14:12:00,
2013-07-30 10:22:00,85.0,77.0,-100.00,ENE,77,5.0,11.0,77,0.00,,,0.00,136.000000,,2013-07-30 14:22:00,
2013-07-30 10:33:00,85.0,77.0,-100.00,ENE,77,5.0,11.0,77,0.00,,,0.00,136.000000,,2013-07-30 14:33:00,
2013-07-30 11:02:00,80.0,76.0,-100.00,SW,227,3.0,16.0,89,0.05,,,0.05,111.000000,,2013-07-30 15:02:00,
2013-07-30 11:12:00,80.0,76.0,-100.00,SW,227,3.0,16.0,89,0.05,,,0.05,111.000000,,2013-07-30 15:12:00,
2013-07-30 11:23:00,80.0,76.0,-100.00,SW,227,3.0,16.0,89,0.05,,,0.05,111.000000,,2013-07-30 15:23:00,
2013-07-30 11:33:00,80.0,76.0,-100.00,SW,227,3.0,16.0,89,0.05,,,0.05,111.000000,,2013-07-30 15:33:00,
2013-07-30 12:12:00,87.0,78.0,-100.00,East,92,4.0,8.0,74,0.00,,,0.05,323.000000,,2013-07-30 16:12:00,
2013-07-30 12:23:00,87.0,78.0,-100.00,East,92,4.0,8.0,74,0.00,,,0.05,323.000000,,2013-07-30 16:23:00,
2013-07-30 12:33:00,87.0,78.0,-100.00,East,92,4.0,8.0,74,0.00,,,0.05,323.000000,,2013-07-30 16:33:00,
2013-07-30 13:02:00,90.0,76.0,-100.00,ENE,78,6.0,10.0,64,0.00,,,0.05,494.000000,,2013-07-30 17:02:00,
2013-07-30 13:12:00,90.0,76.0,-100.00,ENE,78,6.0,10.0,64,0.00,,,0.05,494.000000,,2013-07-30 17:12:00,
2013-07-30 13:22:00,90.0,76.0,-100.00,ENE,78,6.0,10.0,64,0.00,,,0.05,494.000000,,2013-07-30 17:22:00,
2013-07-30 13:32:00,90.0,76.0,-100.00,ENE,78,6.0,10.0,64,0.00,,,0.05,494.000000,,2013-07-30 17:32:00,
2013-07-30 14:03:00,90.0,75.0,-100.00,ESE,102,6.0,12.0,61,0.00,,,0.05,580.000000,,2013-07-30 18:03:00,
2013-07-30 14:12:00,90.0,75.0,-100.00,ESE,102,6.0,12.0,61,0.00,,,0.05,580.000000,,2013-07-30 18:12:00,
2013-07-30 14:23:00,90.0,75.0,-100.00,ESE,102,6.0,12.0,61,0.00,,,0.05,580.000000,,2013-07-30 18:23:00,
2013-07-30 14:32:00,90.0,75.0,-100.00,ESE,102,6.0,12.0,61,0.00,,,0.05,580.000000,,2013-07-30 18:32:00,
2013-07-30 15:03:00,80.0,73.0,-100.00,ENE,64,11.0,22.0,78,0.17,,,0.22,340.000000,,2013-07-30 19:03:00,
2013-07-30 15:12:00,80.0,73.0,-100.00,ENE,64,11.0,22.0,78,0.17,,,0.22,340.000000,,2013-07-30 19:12:00,
2013-07-30 15:23:00,80.0,73.0,-100.00,ENE,64,11.0,22.0,78,0.17,,,0.22,340.000000,,2013-07-30 19:23:00,
2013-07-30 15:33:00,80.0,73.0,-100.00,ENE,64,11.0,22.0,78,0.17,,,0.22,340.000000,,2013-07-30 19:33:00,
2013-07-30 16:02:00,82.0,77.0,-100.00,ENE,78,1.0,10.0,85,0.02,,,0.24,96.000000,,2013-07-30 20:02:00,
2013-07-30 16:13:00,82.0,77.0,-100.00,ENE,78,1.0,10.0,85,0.02,,,0.24,96.000000,,2013-07-30 20:13:00,
2013-07-30 16:22:00,82.0,77.0,-100.00,ENE,78,1.0,10.0,85,0.02,,,0.24,96.000000,,2013-07-30 20:22:00,
2013-07-30 16:33:00,82.0,77.0,-100.00,ENE,78,1.0,10.0,85,0.02,,,0.24,96.000000,,2013-07-30 20:33:00,
2013-07-30 17:12:00,84.0,77.0,-100.00,ESE,111,5.0,11.0,79,0.00,,,0.24,101.000000,,2013-07-30 21:12:00,
2013-07-30 17:22:00,84.0,77.0,-100.00,ESE,111,5.0,11.0,79,0.00,,,0.24,101.000000,,2013-07-30 21:22:00,
2013-07-30 17:32:00,84.0,77.0,-100.00,ESE,111,5.0,11.0,79,0.00,,,0.24,101.000000,,2013-07-30 21:32:00,
2013-07-30 18:12:00,86.0,77.0,-100.00,East,81,7.0,14.0,74,0.00,,,0.24,191.000000,,2013-07-30 22:12:00,
2013-07-30 18:22:00,86.0,77.0,-100.00,East,81,7.0,14.0,74,0.00,,,0.24,191.000000,,2013-07-30 22:22:00,
2013-07-30 18:32:00,86.0,77.0,-100.00,East,81,7.0,14.0,74,0.00,,,0.24,191.000000,,2013-07-30 22:32:00,
2013-07-30 19:02:00,85.0,74.0,-100.00,ESE,104,6.0,14.0,70,0.00,,,0.24,153.000000,,2013-07-30 23:02:00,
2013-07-30 19:13:00,85.0,74.0,-100.00,ESE,104,6.0,14.0,70,0.00,,,0.24,153.000000,,2013-07-30 23:13:00,
2013-07-30 19:22:00,85.0,74.0,-100.00,ESE,104,6.0,14.0,70,0.00,,,0.24,153.000000,,2013-07-30 23:22:00,
2013-07-30 19:32:00,85.0,74.0,-100.00,ESE,104,6.0,14.0,70,0.00,,,0.24,153.000000,,2013-07-30 23:32:00,
2013-07-30 20:02:00,84.0,74.0,-100.00,ESE,108,6.0,13.0,73,0.00,,,0.24,60.000000,,2013-07-31 00:02:00,
2013-07-30 20:12:00,84.0,74.0,-100.00,ESE,108,6.0,13.0,73,0.00,,,0.24,60.000000,,2013-07-31 00:12:00,
2013-07-30 20:22:00,84.0,74.0,-100.00,ESE,108,6.0,13.0,73,0.00,,,0.24,60.000000,,2013-07-31 00:22:00,
2013-07-30 20:32:00,84.0,74.0,-100.00,ESE,108,6.0,13.0,73,0.00,,,0.24,60.000000,,2013-07-31 00:32:00,
2013-07-30 21:02:00,84.0,76.0,-100.00,ESE,105,5.0,11.0,77,0.00,,,0.24,6.000000,,2013-07-31 01:02:00,
2013-07-30 21:12:00,84.0,76.0,-100.00,ESE,105,5.0,11.0,77,0.00,,,0.24,6.000000,,2013-07-31 01:12:00,
2013-07-30 21:22:00,84.0,76.0,-100.00,ESE,105,5.0,11.0,77,0.00,,,0.24,6.000000,,2013-07-31 01:22:00,
2013-07-30 21:32:00,84.0,76.0,-100.00,ESE,105,5.0,11.0,77,0.00,,,0.24,6.000000,,2013-07-31 01:32:00,
2013-07-30 22:12:00,84.0,75.0,-100.00,ESE,120,5.0,11.0,75,0.00,,,0.24,0.000000,,2013-07-31 02:12:00,
2013-07-30 22:22:00,84.0,75.0,-100.00,ESE,120,5.0,11.0,75,0.00,,,0.24,0.000000,,2013-07-31 02:22:00,
2013-07-30 22:32:00,84.0,75.0,-100.00,ESE,120,5.0,11.0,75,0.00,,,0.24,0.000000,,2013-07-31 02:32:00,
2013-07-30 23:02:00,83.0,75.0,-100.00,East,79,4.0,13.0,77,0.00,,,0.24,0.000000,,2013-07-31 03:02:00,
2013-07-30 23:12:00,83.0,75.0,-100.00,East,79,4.0,13.0,77,0.00,,,0.24,0.000000,,2013-07-31 03:12:00,
2013-07-30 23:22:00,83.0,75.0,-100.00,East,79,4.0,13.0,77,0.00,,,0.24,0.000000,,2013-07-31 03:22:00,
2013-07-30 23:32:00,83.0,75.0,-100.00,East,79,4.0,13.0,77,0.00,,,0.24,0.000000,,2013-07-31 03:32:00,